Flag for Belgium Weather past 2 weeks in Charleroi, Belgium

41 °F

Sprinkles. Passing clouds.

Feels Like: 36 °F
Forecast: 37 / 46 °F
Wind: 8 mph from West

Location: Charleroi / Gosselies

Current Time: Nov 25, 2015 at 5:45:56 AM

Latest Report: Nov 25, 2015 at 4:50 AM

Visibility: 3 mi

Pressure: 29.74 "Hg

Humidity: 100%

Dew point: 41 °F

Location of CharleroiLocation

Historic Weather in Charleroi — Graph


Charleroi temperature yesterday

Maximum temperature yesterday: 39 °F (at 10:50 PM)
Minimum temperature yesterday: 30 °F (at 12:20 AM)
Average temperature yesterday: 35 °F

Past Weeks' High & Low Weather Summary

High59 °F (Nov 12, 3:20 PM)100% (Nov 10, 5:20 PM)30.39 "Hg (Nov 10, 5:20 PM)
Low30 °F (Nov 23, 3:20 AM)59% (Nov 13, 2:50 PM)29.42 "Hg (Nov 21, 12:20 PM)
Average47 °F88%30.02 "Hg
* Reported Nov 10 3:20 AM — Nov 25 3:50 AM, Charleroi, Weather by CustomWeather, © 2015

Note: Actual official high and low records may vary slightly from our data, if they occured in-between our weather recording intervals... More about our weather records


Charleroi weather history for previous 24 hours

Time TempWeatherWind HumidityBarometerVisibility
3:50 AM
Wed, Nov 25
41 °FPartly cloudy.9 mph93%29.74 "HgN/A
3:20 AM41 °FLight rain. Passing clouds.8 mph100%29.74 "HgN/A
2:50 AM41 °FLight rain. Passing clouds.7 mph93%29.74 "Hg4 mi
2:20 AM43 °FLight rain. Passing clouds.6 mph93%29.74 "Hg4 mi
1:50 AM43 °FPassing clouds.6 mph93%29.74 "Hg5 mi
1:20 AM41 °FPartly cloudy.10 mph100%29.77 "Hg1 mi
12:50 AM41 °FPartly cloudy.7 mph100%29.77 "Hg1 mi
12:20 AM41 °FPassing clouds.10 mph93%29.77 "Hg1 mi
11:50 PM
Tue, Nov 24
39 °FPassing clouds.10 mph100%29.77 "Hg1 mi
11:20 PM39 °FPassing clouds.12 mph100%29.77 "Hg1 mi
10:50 PM39 °FPassing clouds.13 mph93%29.77 "Hg4 mi
10:20 PM37 °FLight rain. Passing clouds.14 mph100%29.80 "Hg4 mi
9:50 PM37 °FLight rain. Passing clouds.14 mph100%29.80 "Hg4 mi
9:20 PM37 °FPassing clouds.14 mph93%29.80 "HgN/A
8:50 PM37 °FLight rain. Passing clouds.14 mph93%29.83 "HgN/A
8:20 PM37 °FLight rain. Passing clouds.14 mph93%29.83 "HgN/A
7:50 PM36 °FLight rain. Passing clouds.15 mph100%29.83 "HgN/A
7:20 PM36 °FLight rain. Passing clouds.17 mph100%29.83 "HgN/A
6:50 PM37 °FLight rain. Passing clouds.15 mph93%29.86 "Hg2 mi
6:20 PM36 °FLight rain. Passing clouds.17 mph100%29.86 "Hg5 mi
5:50 PM36 °FLight rain. Passing clouds.20 mph93%29.86 "Hg3 mi
5:20 PM36 °FPassing clouds.20 mph93%29.86 "Hg2 mi
4:50 PM36 °FPassing clouds.21 mph93%29.86 "HgN/A
4:20 PM36 °FPartly sunny.22 mph93%29.89 "HgN/A
3:50 PM36 °FLight rain. Partly sunny.18 mph93%29.89 "Hg3 mi
3:20 PM36 °FLight rain. Partly sunny.18 mph93%29.89 "Hg2 mi
2:50 PM36 °FLight rain. Partly sunny.20 mph93%29.92 "Hg3 mi
2:20 PM36 °FLight rain. Partly sunny.21 mph93%29.92 "Hg3 mi
1:50 PM36 °FLight rain. Partly sunny.21 mph93%29.95 "Hg3 mi
1:20 PM36 °FLight rain. Partly sunny.20 mph87%29.98 "Hg3 mi
12:50 PM36 °FLight snow. Partly sunny.21 mph87%29.98 "Hg3 mi
12:20 PM36 °FLight snow. Partly sunny.22 mph81%30.01 "HgN/A
11:50 AM36 °FLight snow. Scattered clouds.17 mph81%30.04 "HgN/A
11:20 AM34 °FLight snow. Passing clouds.20 mph87%30.04 "Hg2 mi
10:50 AM36 °FLight snow. Passing clouds.16 mph81%30.07 "HgN/A
10:20 AM36 °FLight snow. Passing clouds.16 mph81%30.07 "HgN/A
9:50 AM34 °FLight snow. Passing clouds.18 mph87%30.09 "HgN/A
9:20 AM34 °FLight snow. Passing clouds.18 mph87%30.09 "HgN/A
8:50 AM34 °FPassing clouds.17 mph87%30.09 "HgN/A
7:50 AM34 °FPassing clouds.15 mph87%30.12 "HgN/A
6:50 AM34 °FPassing clouds.16 mph87%30.12 "HgN/A
6:20 AM34 °FPassing clouds.14 mph87%30.15 "HgN/A
5:50 AM34 °FPassing clouds.13 mph87%30.15 "Hg5 mi
5:20 AM34 °FPassing clouds.15 mph87%30.15 "Hg4 mi
Weather by CustomWeather, © 2015

See weather overviewHow to use our weather pages